EW4117 Weather Reports


Display with metric or nautical units.
time (UTC)temp
F
wind
direction
speed
MPH
gust
MPH
rain 1hr
in
rain 24hr
in
rain mn
in
humidity
%
barometer
mb
20260503054524 52 287 0.0 0.0 0.00 0.01 0.00 83 1009.6
20260503053026 52 288 0.0 1.0 0.00 0.01 0.00 83 1009.7
20260503051520 52 297 0.0 2.0 0.00 0.01 0.00 83 1009.8
20260503050020 52 303 0.0 3.0 0.00 0.01 0.00 83 1009.6
20260503044522 52 275 0.0 3.0 0.00 0.01 0.00 83 1009.7
20260503043018 52 338 1.0 4.0 0.00 0.01 0.00 83 1009.7
20260503041515 52 273 0.0 2.0 0.00 0.01 0.00 83 1009.8
20260503040014 52 323 1.0 3.0 0.00 0.01 0.00 83 1009.8
20260503034513 52 307 0.0 3.0 0.00 0.01 0.00 83 1009.8
20260503033011 52 217 0.0 1.0 0.00 0.01 0.00 83 1009.8
20260503031510 52 214 0.0 2.0 0.00 0.01 0.00 83 1010.0
20260503030008 52 336 2.0 4.0 0.00 0.01 0.00 83 1010.0
20260503024513 52 349 1.0 4.0 0.00 0.01 0.00 83 1010.0
20260503023006 52 22 2.0 6.0 0.00 0.01 0.00 82 1010.2
20260503021506 52 347 0.0 2.0 0.00 0.01 0.00 83 1010.1
20260503020005 52 244 0.0 3.0 0.00 0.01 0.00 82 1010.2
20260503014503 52 251 0.0 3.0 0.00 0.01 0.00 82 1010.0
20260503013010 52 259 0.0 4.0 0.00 0.01 0.00 82 1010.0
20260503011500 52 356 0.0 1.0 0.00 0.01 0.00 81 1010.1
20260503010058 52 349 0.0 2.0 0.00 0.01 0.00 81 1010.3
20260503004557 53 245 0.0 0.0 0.00 0.01 0.00 80 1010.3
20260503003052 53 244 0.0 0.0 0.00 0.01 0.00 80 1010.8
20260503001551 53 249 0.0 3.0 0.00 0.01 0.00 79 1010.9
20260503000046 54 292 0.0 2.0 0.00 0.01 0.00 79 1011.1
20260502234553 54 288 0.0 2.0 0.00 0.01 0.00 79 1011.2
20260502233044 54 250 0.0 2.0 0.00 0.01 0.00 79 1011.4
20260502231542 54 335 0.0 0.0 0.00 0.01 0.00 79 1011.5
20260502230039 54 336 0.0 1.0 0.00 0.01 0.00 78 1011.5
20260502224543 55 230 0.0 2.0 0.00 0.01 0.00 78 1011.9
20260502223041 55 226 0.0 2.0 0.00 0.01 0.00 77 1011.9
20260502221533 55 229 0.0 0.0 0.00 0.01 0.00 76 1011.9
20260502220032 55 236 0.0 1.0 0.00 0.01 0.01 76 1011.7
20260502214535 55 243 0.0 2.0 0.00 0.01 0.01 75 1011.8
20260502213031 56 161 0.0 3.0 0.00 0.01 0.01 74 1011.8
20260502211533 56 153 0.0 2.0 0.00 0.01 0.01 74 1011.7
20260502210035 56 159 2.0 3.0 0.00 0.01 0.01 74 1011.7
20260502204529 56 162 0.0 2.0 0.00 0.01 0.01 74 1011.5
20260502203028 56 132 0.0 1.0 0.00 0.01 0.01 74 1011.3
20260502201528 57 141 1.0 3.0 0.00 0.01 0.01 73 1011.2
20260502200027 57 153 2.0 3.0 0.00 0.01 0.01 74 1011.1
20260502194531 57 157 2.0 3.0 0.00 0.01 0.01 74 1011.1
20260502193026 57 198 0.0 2.0 0.00 0.01 0.01 74 1011.1
20260502191529 58 181 0.0 0.0 0.00 0.01 0.01 75 1011.0
20260502190030 58 356 0.0 0.0 0.00 0.01 0.01 74 1010.9
20260502184623 58 352 0.0 3.0 0.00 0.01 0.01 73 1010.9
20260502183023 59 305 2.0 4.0 0.00 0.01 0.01 72 1010.9
20260502181530 60 15 2.0 6.0 0.00 0.01 0.01 71 1010.8
20260502163021 60 15 1.0 4.0 0.00 0.01 0.01 68 1011.4
20260502161514 60 338 1.0 8.0 0.00 0.01 0.01 69 1011.4
20260502151517 62 356 2.0 5.0 0.00 0.01 0.01 66 1011.7
20260502123051 58 257 1.0 6.0 0.00 0.01 0.01 74 1013.3
20260502121546 58 293 1.0 4.0 0.00 0.01 0.01 74 1013.4
20260502114540 57 322 3.0 7.0 0.00 0.01 0.01 74 1013.6
20260502113038 56 353 3.0 6.0 0.00 0.01 0.01 75 1013.6
20260502111539 56 328 3.0 6.0 0.00 0.01 0.01 77 1013.6
20260502110034 55 316 1.0 6.0 0.00 0.01 0.01 78 1013.9
20260502104536 55 311 2.0 6.0 0.00 0.01 0.01 77 1014.1
20260502103032 55 325 2.0 8.0 0.00 0.01 0.01 76 1014.1
20260502101532 55 323 2.0 5.0 0.00 0.01 0.01 75 1014.2
20260502091524 53 323 3.0 6.0 0.00 0.01 0.01 78 1014.0
20260502071520 49 212 1.0 4.0 0.00 0.01 0.01 84 1013.9
20260502070019 49 244 0.0 2.0 0.00 0.01 0.01 84 1013.9
20260502064519 48 242 0.0 2.0 0.01 0.01 0.01 84 1014.0
20260502063118 48 285 0.0 1.0 0.01 0.01 0.01 84 1014.1
20260502061530 48 286 0.0 2.0 0.01 0.01 0.01 84 1014.0
20260502060020 48 252 0.0 2.0 0.01 0.02 0.01 84 1013.9